Wind_Speed
24 25 25 29 32 35 37 39 41 40 40 42 45 49 52 52 42 47 46 53 61 66 68 61 54 53 45 47 44 41 52 54 51 63 67 63 66 69 70 69 68 68 70 66
28 27 29 32 34 37 39 41 42 42 42 43 46 50 51 47 49 51 51 48 49 52 56 57 54 52 48 47 47 44 40 59 58 47 65 72 64 68 74 77 71 66 69 65
31 30 32 34 33 35 38 38 39 42 43 42 47 51 49 37 43 46 51 54 51 45 47 52 50 49 46 48 47 40 43 48 63 58 59 55 75 74 72 72 64 62 66 70
30 34 36 38 37 32 38 33 37 38 38 42 40 49 46 46 46 47 48 47 44 41 44 45 49 47 47 46 46 44 43 44 54 63 56 61 59 74 77 74 72 74 64 64
25 29 31 33 31 32 36 36 37 37 36 36 37 44 36 51 52 53 54 55 52 43 46 48 48 48 49 48 46 43 43 40 46 55 58 58 59 60 65 79 80 72 67 77
36 27 32 31 31 36 35 37 40 41 41 37 29 38 34 28 46 60 59 59 47 50 42 44 41 43 45 46 47 45 40 39 40 49 52 57 54 64 59 64 79 77 73 76
44 46 34 38 41 42 40 39 43 44 46 41 29 34 26 31 34 45 64 60 54 52 42 44 41 40 40 43 47 47 41 42 42 43 48 51 54 54 60 66 66 69 82 80
49 51 46 44 48 41 39 24 33 39 45 45 40 34 23 28 31 32 45 44 44 43 39 42 36 36 36 40 42 45 47 46 44 44 43 47 53 56 53 46 54 71 74 75
53 55 49 52 44 39 37 33 30 35 36 37 37 35 23 26 29 31 32 32 44 42 35 34 38 36 31 37 33 38 44 43 43 44 46 46 47 47 50 51 48 44 45 52
52 54 52 53 48 51 41 25 30 32 35 31 32 25 30 24 28 31 35 39 39 40 45 48 50 49 46 45 40 37 40 41 37 40 44 48 49 48 47 47 47 48 43 39
37 40 39 35 32 38 35 29 30 28 27 29 26 29 27 29 31 29 33 40 45 46 49 53 52 51 48 42 42 43 41 39 37 35 39 43 45 46 47 47 46 47 48 41
31 30 28 24 21 21 23 30 36 33 29 28 31 31 33 27 31 26 27 24 38 39 40 41 44 45 41 39 37 38 40 39 37 36 36 38 39 40 40 41 42 42 44 42
24 23 21 13 13 19 25 21 27 28 29 28 27 26 27 28 26 27 27 35 31 32 49 48 48 48 50 48 45 43 42 44 42 38 36 36 38 40 41 41 42 42 40 39
18 17 17 17 12 13 12 16 22 20 19 24 28 28 24 22 29 32 31 35 29 30 30 37 56 52 50 49 43 45 44 49 40 39 38 38 41 44 46 47 46 45 44 43
17 17 17 17 16 13 11 10 15 20 20 22 21 30 31 26 27 31 36 32 33 40 40 37 39 37 40 44 39 42 42 40 46 44 45 42 43 45 46 47 49 49 48 47
14 13 16 13 17 16 10 13 13 19 22 22 20 23 28 27 27 30 37 42 41 42 45 47 41 48 42 48 56 53 48 49 47 39 43 47 49 48 47 48 50 49 50 51
17 17 16 14 14 14 13 15 16 16 20 22 24 26 27 29 33 32 37 39 47 50 48 47 50 52 51 50 50 55 54 57 59 57 50 48 50 54 55 56 56 55 54 54
15 14 17 12 11 13 13 9 12 20 14 14 20 27 28 32 31 36 37 41 43 45 46 51 54 51 61 65 64 62 61 59 58 61 61 60 57 56 55 55 56 57 60 59
14 14 14 10 10 13 15 14 15 18 15 19 23 27 31 35 40 38 42 47 52 54 57 59 60 61 64 62 66 65 66 65 64 60 62 63 64 61 59 60 58 58 62 63
12 11 11 11 7 9 11 15 20 24 23 28 33 37 40 42 44 41 51 53 55 58 60 64 66 70 71 71 74 74 69 69 71 71 71 70 72 77 77 75 66 63 58 58
10 11 13 14 13 11 13 15 22 28 32 32 37 40 41 40 44 38 45 49 54 56 59 62 65 68 67 68 71 72 72 70 66 64 61 61 62 64 62 59 58 58 58 57
12 8 10 13 16 15 21 27 31 34 37 39 38 37 33 38 38 38 37 37 40 46 48 50 58 63 66 66 68 68 67 61 57 55 53 56 55 55 55 56 54 55 55 52
14 15 14 16 18 20 28 31 33 37 40 35 28 30 36 34 36 41 47 52 55 57 59 61 62 60 59 55 61 60 48 51 51 52 47 47 46 49 48 49 49 46 47 49
15 15 17 17 17 23 29 33 38 41 32 33 31 30 33 40 45 52 39 36 27 24 27 30 31 28 28 43 53 48 41 40 41 41 43 44 44 45 42 42 43 42 42 39
16 16 16 20 21 28 30 36 36 28 33 29 30 33 38 44 37 33 28 33 23 28 33 29 28 26 28 29 31 41 44 39 36 37 39 40 38 40 42 44 39 33 27 26
16 16 16 16 18 22 30 29 22 25 23 29 33 35 39 32 33 34 22 39 33 23 23 26 22 18 12 12 16 21 30 30 33 36 37 34 28 31 37 36 33 27 25 26
Wind_Direction
274 273 276 270 268 263 260 259 259 258 254 239 241 242 247 247 241 238 230 229 234 241 246 250 250 256 256 254 254 247 238 238 246 239 236 236 233 235 238 245 236 238 235 234
282 286 283 278 272 269 264 258 256 255 251 242 240 239 243 248 244 244 241 236 237 241 245 248 249 253 256 253 250 249 245 238 241 245 240 236 242 239 237 238 239 234 243 252
281 284 279 280 277 272 266 263 262 257 253 247 246 239 239 234 245 242 242 240 238 237 246 247 249 251 249 250 250 244 244 241 240 243 247 243 238 240 245 242 248 252 239 251
282 282 282 281 278 268 266 262 262 267 268 262 256 256 249 233 228 238 242 245 244 238 239 244 244 246 248 245 247 247 243 242 238 238 243 248 247 241 243 244 246 243 247 250
287 279 281 279 291 274 263 260 261 264 264 269 264 262 249 237 236 240 242 243 241 247 256 255 246 242 242 247 247 247 245 243 242 238 240 241 247 250 250 246 244 247 247 249
300 284 282 291 294 290 263 259 261 266 266 266 268 259 248 247 248 245 247 250 255 256 254 253 249 247 243 241 244 246 249 245 241 240 238 241 248 245 248 250 250 249 253 256
300 299 295 277 295 293 260 256 262 264 270 274 269 267 264 252 252 252 244 247 251 250 242 244 247 249 251 249 245 246 240 242 242 240 242 238 242 248 249 250 252 253 253 251
297 292 285 275 286 284 253 266 272 277 277 272 264 267 275 271 261 248 239 240 239 240 236 235 238 247 248 253 253 249 246 242 243 242 241 241 241 245 249 252 255 249 252 256
289 285 280 278 281 272 278 270 263 272 278 285 270 256 259 263 254 245 232 230 227 234 239 248 251 252 253 256 263 258 248 245 244 243 244 244 243 246 247 250 253 260 259 260
285 285 282 277 272 268 279 257 265 276 278 273 263 239 253 259 273 253 264 210 206 217 228 235 239 249 253 252 256 249 250 249 246 246 244 246 249 247 248 248 247 252 255 252
298 292 292 289 289 267 261 273 270 275 267 261 276 252 253 263 273 273 249 207 206 211 220 230 237 240 246 246 239 234 238 243 245 238 236 240 245 247 249 251 251 249 253 250
304 306 305 302 285 275 261 261 261 265 271 264 259 261 258 271 271 279 256 254 230 228 227 234 239 248 260 259 258 252 244 241 241 241 246 242 242 242 244 246 249 250 251 252
319 319 318 316 306 266 278 263 253 258 262 264 277 256 261 266 258 273 267 260 272 258 239 233 244 251 259 260 266 264 257 249 246 245 245 247 247 247 247 246 247 250 251 251
330 323 328 334 324 298 268 252 259 273 277 273 264 255 270 254 254 269 277 273 252 240 253 266 259 252 258 257 255 256 265 256 252 254 247 246 246 246 247 249 249 248 251 251
321 314 311 314 309 306 296 272 266 265 273 275 259 258 268 273 269 272 273 270 266 258 254 261 251 247 245 238 245 252 256 251 243 248 253 251 250 251 250 248 248 249 249 250
317 316 314 304 293 301 289 281 268 257 261 265 266 262 266 269 275 276 272 272 267 262 260 260 261 259 248 250 251 257 253 251 243 244 246 249 248 247 250 253 252 249 247 247
314 305 317 308 301 312 293 270 273 275 258 263 273 265 272 273 274 277 266 262 256 259 262 264 261 253 248 252 257 251 250 250 251 254 257 253 254 248 246 249 252 256 256 252
308 307 306 294 283 299 306 282 293 319 291 276 284 267 279 276 268 273 276 269 264 256 258 257 258 258 253 256 258 259 253 255 261 258 258 262 260 254 254 255 257 255 253 253
306 300 312 313 307 296 299 305 299 298 304 301 290 286 283 281 272 272 272 267 265 265 267 267 264 264 263 257 252 257 256 259 261 263 261 263 261 253 255 260 263 259 254 252
293 308 300 312 319 305 309 302 305 308 310 303 301 299 293 288 280 276 277 276 273 271 270 267 264 261 259 259 259 257 257 258 260 263 261 257 255 260 259 260 259 256 258 255
292 302 298 307 303 303 302 301 306 303 305 305 300 297 293 291 290 285 280 278 276 273 270 268 267 264 263 262 261 258 257 256 257 255 254 254 253 253 255 254 254 259 255 253
282 260 296 291 299 313 313 313 309 309 307 306 307 304 297 291 287 284 294 288 286 284 279 275 272 269 265 261 257 259 259 258 256 254 253 254 251 249 248 251 250 247 245 244
259 276 286 292 307 317 318 320 318 317 315 317 310 303 299 305 307 308 305 301 297 291 286 281 278 274 265 265 259 256 258 255 252 246 244 245 245 244 244 244 245 243 248 248
262 259 274 295 305 317 319 321 322 319 324 324 324 323 323 320 320 320 326 324 319 326 313 299 296 289 286 269 255 247 248 248 239 235 237 240 242 243 243 241 241 249 250 243
250 254 275 290 311 320 327 325 325 324 325 327 324 329 329 325 337 349 10 3 324 333 332 323 311 282 273 276 261 242 238 233 223 228 232 236 239 236 239 241 246 233 226 223
247 253 274 297 315 323 327 322 328 327 331 332 334 339 337 352 353 351 357 1 359 351 344 349 339 322 299 283 292 231 220 217 225 232 242 251 250 239 231 229 212 195 188 192
Height
5739 5740 5739 5735 5733 5732 5731 5731 5730 5733 5733 5728 5728 5730 5735 5735 5740 5743 5748 5751 5755 5756 5758 5761 5765 5767 5773 5776 5781 5787 5787 5789 5790 5793 5801 5803 5809 5815 5820 5820 5827 5829 5829 5833
5733 5733 5731 5728 5726 5723 5721 5719 5719 5721 5720 5716 5720 5719 5723 5723 5729 5733 5736 5740 5744 5745 5745 5748 5755 5759 5762 5766 5770 5774 5777 5777 5779 5783 5789 5791 5794 5797 5803 5808 5811 5813 5816 5821
5726 5726 5721 5718 5716 5713 5711 5709 5708 5708 5708 5709 5708 5707 5714 5716 5716 5721 5724 5729 5731 5736 5735 5737 5743 5749 5753 5755 5758 5764 5765 5766 5768 5772 5776 5779 5783 5786 5788 5795 5801 5805 5803 5811
5720 5716 5712 5709 5705 5703 5698 5701 5699 5698 5698 5697 5700 5697 5704 5707 5706 5709 5711 5713 5717 5720 5723 5726 5731 5736 5740 5744 5746 5751 5753 5756 5756 5760 5764 5767 5770 5775 5777 5781 5787 5793 5796 5800
5713 5706 5702 5699 5697 5695 5692 5692 5690 5688 5687 5686 5690 5685 5694 5697 5697 5700 5700 5703 5708 5711 5714 5716 5721 5726 5730 5732 5736 5739 5742 5744 5747 5750 5752 5755 5758 5763 5766 5771 5773 5781 5785 5789
5697 5698 5696 5691 5689 5688 5684 5683 5681 5679 5677 5675 5682 5676 5680 5687 5689 5688 5689 5692 5696 5698 5701 5702 5707 5711 5716 5721 5724 5728 5733 5735 5736 5738 5740 5744 5747 5751 5754 5758 5762 5769 5772 5775
5687 5684 5687 5683 5679 5679 5676 5673 5671 5670 5668 5668 5672 5668 5674 5675 5673 5671 5671 5680 5683 5686 5691 5692 5695 5699 5701 5706 5710 5714 5719 5721 5723 5725 5728 5733 5737 5739 5743 5747 5749 5752 5760 5764
5676 5673 5677 5676 5670 5665 5662 5665 5664 5659 5656 5658 5662 5660 5666 5663 5660 5660 5660 5668 5670 5676 5680 5683 5687 5691 5694 5694 5696 5699 5703 5707 5711 5714 5717 5720 5724 5728 5733 5735 5737 5740 5743 5747
5667 5660 5663 5661 5659 5657 5656 5655 5651 5651 5652 5647 5649 5655 5656 5653 5653 5652 5653 5657 5663 5667 5671 5674 5677 5679 5683 5686 5687 5687 5689 5692 5697 5703 5707 5709 5713 5717 5721 5723 5726 5729 5729 5731
5659 5651 5652 5647 5646 5647 5645 5645 5642 5642 5642 5640 5642 5644 5646 5646 5646 5646 5647 5646 5648 5651 5658 5662 5665 5669 5674 5676 5678 5678 5678 5681 5686 5691 5694 5698 5701 5705 5708 5712 5716 5720 5722 5724
5649 5642 5639 5634 5633 5632 5635 5635 5634 5634 5634 5634 5633 5637 5638 5637 5639 5640 5637 5636 5637 5639 5642 5646 5650 5654 5658 5660 5663 5665 5667 5671 5675 5679 5682 5685 5689 5693 5696 5699 5702 5707 5710 5712
5640 5634 5630 5627 5623 5623 5626 5626 5626 5626 5628 5628 5628 5630 5632 5631 5629 5629 5633 5631 5634 5633 5636 5639 5641 5644 5646 5648 5650 5654 5656 5659 5663 5667 5671 5675 5679 5680 5684 5687 5690 5693 5697 5700
5634 5628 5624 5623 5621 5619 5619 5619 5619 5620 5620 5622 5621 5623 5623 5624 5625 5623 5625 5625 5625 5628 5631 5630 5631 5634 5635 5636 5640 5642 5645 5647 5650 5655 5659 5663 5665 5668 5671 5675 5679 5683 5686 5690
5629 5626 5622 5620 5618 5615 5614 5613 5613 5614 5615 5615 5617 5612 5613 5616 5618 5618 5618 5618 5620 5621 5621 5622 5620 5622 5626 5628 5628 5629 5632 5634 5636 5640 5645 5649 5653 5656 5659 5662 5666 5670 5674 5679
5627 5623 5620 5617 5613 5612 5611 5609 5608 5607 5609 5610 5609 5608 5610 5611 5610 5610 5609 5610 5610 5612 5612 5611 5613 5613 5614 5614 5617 5619 5619 5621 5624 5627 5630 5634 5638 5642 5646 5650 5654 5658 5663 5667
5623 5621 5617 5614 5610 5609 5608 5606 5608 5606 5604 5604 5602 5603 5603 5603 5602 5601 5601 5599 5599 5598 5597 5598 5599 5601 5603 5603 5604 5606 5606 5608 5611 5613 5617 5620 5624 5628 5631 5635 5639 5644 5649 5653
5619 5617 5614 5611 5608 5605 5604 5603 5602 5601 5600 5599 5598 5597 5596 5595 5593 5592 5590 5586 5584 5582 5582 5582 5582 5583 5584 5586 5587 5590 5591 5591 5593 5597 5601 5605 5609 5614 5618 5621 5625 5629 5632 5637
5616 5613 5610 5608 5605 5603 5601 5600 5598 5596 5594 5594 5593 5590 5587 5585 5584 5583 5578 5575 5573 5571 5569 5567 5566 5566 5567 5567 5569 5571 5572 5573 5576 5581 5586 5589 5591 5594 5598 5603 5609 5613 5616 5620
5612 5611 5607 5605 5602 5601 5598 5596 5595 5592 5593 5589 5586 5583 5579 5576 5573 5574 5567 5563 5561 5557 5555 5552 5549 5546 5547 5549 5550 5548 5552 5555 5557 5563 5566 5569 5571 5574 5578 5583 5589 5593 5596 5602
5609 5607 5606 5603 5601 5599 5597 5594 5590 5587 5587 5583 5578 5574 5569 5565 5559 5561 5551 5546 5542 5536 5533 5529 5527 5523 5523 5527 5524 5524 5529 5532 5537 5542 5545 5547 5550 5553 5557 5564 5570 5573 5577 5582
5605 5604 5602 5600 5598 5597 5594 5592 5588 5585 5583 5577 5571 5564 5558 5552 5542 5543 5535 5529 5521 5517 5512 5507 5500 5496 5500 5501 5498 5499 5504 5510 5517 5518 5522 5525 5528 5531 5536 5541 5546 5552 5556 5561
5601 5599 5599 5598 5595 5594 5591 5588 5583 5578 5572 5565 5558 5550 5545 5538 5532 5525 5518 5510 5503 5495 5489 5484 5476 5473 5474 5474 5474 5476 5479 5488 5490 5494 5499 5504 5509 5513 5516 5521 5527 5531 5536 5542
5598 5597 5596 5594 5592 5590 5586 5580 5574 5568 5560 5554 5547 5541 5533 5528 5519 5511 5500 5491 5482 5473 5465 5457 5451 5448 5450 5450 5450 5456 5464 5466 5470 5475 5481 5486 5490 5495 5500 5505 5510 5514 5518 5522
5593 5593 5592 5591 5589 5586 5581 5573 5567 5559 5552 5546 5539 5533 5525 5515 5506 5494 5484 5475 5466 5461 5452 5444 5435 5429 5427 5426 5427 5434 5444 5448 5453 5460 5466 5470 5475 5480 5485 5490 5495 5499 5503 5507
5589 5589 5589 5587 5585 5580 5574 5568 5561 5555 5548 5542 5535 5528 5518 5507 5496 5488 5480 5471 5462 5453 5443 5433 5423 5417 5414 5411 5409 5415 5425 5433 5439 5446 5452 5455 5461 5467 5472 5476 5483 5487 5492 5496
5584 5586 5586 5584 5582 5578 5573 5564 5558 5553 5547 5539 5530 5523 5513 5503 5494 5486 5480 5471 5462 5451 5440 5430 5417 5408 5406 5402 5401 5402 5412 5420 5429 5436 5441 5445 5449 5454 5458 5465 5474 5482 5488 5494